Cheektowaga, NY

8:20 PM EDT on August 24, 2016 (GMT -0400)
Buffalo Niagara International

Weather History for KBUF - April, 2013

Change the Weather History Date:

Saturday, April 20, 2013

  Actual Average Record
Temperature  
Mean Temperature 36 °F 48 °F  
Max Temperature 41 °F 57 °F 84 °F (1987)
Min Temperature 31 °F 39 °F 20 °F (1926)
Degree Days  
Heating Degree Days 29 17  
Month to date heating degree days 424 422  
Since 1 July heating degree days 5730 6127  
Cooling Degree Days 0 0  
Month to date cooling degree days 0 0  
Year to date cooling degree days 0 0  
Moisture  
Dew Point 26 °F    
Average Humidity 62    
Maximum Humidity 76    
Minimum Humidity 48    
Precipitation  
Precipitation T in 0.09 in 1.27 in (1893)
Month to date precipitation 3.36 2.06  
Year to date precipitation 9.97 10.60  
Snow  
Snow T in 0.10 in 5.50 in (1901)
Month to date snowfall 0.3 2.5  
Since 1 July snowfall 58.8 94.2  
Snow Depth 0.00 in    
Sea Level Pressure  
Sea Level Pressure 30.02 in    
Wind  
Wind Speed 18 mph (West)    
Max Wind Speed 35 mph    
Max Gust Speed 46 mph    
Visibility 9 miles    
Events Snow    
T = Trace of Precipitation, MM = Missing Value Source: NWS Daily Summary

Daily Weather History Graph

Daily Weather History Graph

Search for Another Location

Airport or City:

Trip Planner

Search our weather history database for the weather conditions in past years. The results will help you decide how hot, cold, wet, or windy it might be!

Date:

Astronomy

Apr. 20, 2013 Rise Set
Actual Time 6:24 AM EDT 8:03 PM EDT
Civil Twilight 5:54 AM EDT 8:33 PM EDT
Nautical Twilight 5:18 AM EDT 9:09 PM EDT
Astronomical Twilight 4:39 AM EDT 9:48 PM EDT
Moon 2:37 PM EDT (4/20) 3:21 AM EDT (4/20)
Length of Visible Light 14h 38m
Length of Day
13h 38m
Waxing Gibbous, 71% of the Moon is Illuminated
Apr 20
Waxing Gibbous
Apr 25
Full
May 2
Last Quarter
May 9
New
May 18
First Quarter

Hourly Weather History & Observations

Time (EDT) Temp. Windchill Dew Point Humidity Pressure Visibility Wind Dir Wind Speed Gust Speed Precip Events Conditions
12:54 AM 41.0 °F 30.0 °F 28.0 °F 60% 29.75 in 10.0 mi WSW 28.8 mph 43.7 mph 0.00 in   Overcast
1:54 AM 39.9 °F 29.2 °F 28.9 °F 65% 29.76 in 10.0 mi SW 25.3 mph 31.1 mph N/A   Overcast
2:54 AM 39.0 °F 28.5 °F 30.9 °F 73% 29.76 in 10.0 mi WSW 23.0 mph 40.3 mph N/A   Overcast
3:54 AM 37.9 °F 26.8 °F 30.0 °F 73% 29.77 in 9.0 mi SW 24.2 mph 38.0 mph 0.00 in   Mostly Cloudy
4:42 AM 37.4 °F 25.2 °F 30.2 °F 75% 29.75 in 9.0 mi WSW 28.8 mph 39.1 mph N/A   Overcast
4:54 AM 37.9 °F 25.5 °F 30.9 °F 76% 29.77 in 9.0 mi WSW 31.1 mph 43.7 mph N/A   Overcast
5:54 AM 37.0 °F 24.5 °F 30.9 °F 79% 29.80 in 9.0 mi WSW 29.9 mph 39.1 mph N/A   Mostly Cloudy
6:13 AM 37.4 °F 26.4 °F 30.2 °F 75% 29.78 in 9.0 mi WSW 23.0 mph 40.3 mph N/A   Mostly Cloudy
6:27 AM 37.4 °F 25.0 °F 30.2 °F 75% 29.79 in 9.0 mi WSW 29.9 mph 39.1 mph N/A   Mostly Cloudy
6:54 AM 37.9 °F 27.6 °F 30.9 °F 76% 29.82 in 10.0 mi WSW 20.7 mph 35.7 mph N/A   Overcast
7:08 AM 35.6 °F 23.2 °F 30.2 °F 81% 29.81 in 2.0 mi West 26.5 mph 43.7 mph 0.00 in Snow Light Snow
7:17 AM 33.8 °F 24.3 °F 30.2 °F 87% 29.82 in 7.0 mi WSW 13.8 mph 29.9 mph 0.00 in Snow Light Snow
7:54 AM 36.0 °F 25.0 °F 28.0 °F 73% 29.85 in 10.0 mi WSW 20.7 mph 31.1 mph 0.00 in   Mostly Cloudy
8:28 AM 35.6 °F 25.5 °F 30.2 °F 81% 29.85 in 10.0 mi WSW 17.3 mph 31.1 mph N/A   Mostly Cloudy
8:54 AM 37.0 °F 25.9 °F 28.9 °F 73% 29.88 in 10.0 mi WSW 23.0 mph 35.7 mph N/A   Mostly Cloudy
9:21 AM 37.4 °F 26.4 °F 28.4 °F 70% 29.87 in 10.0 mi West 23.0 mph 38.0 mph N/A   Mostly Cloudy
9:54 AM 36.0 °F 24.4 °F 25.0 °F 64% 29.91 in 7.0 mi WSW 23.0 mph 36.8 mph 0.00 in Snow Light Snow
10:54 AM 37.9 °F 26.8 °F 24.1 °F 57% 29.96 in 10.0 mi West 24.2 mph 34.5 mph 0.00 in   Mostly Cloudy
11:54 AM 37.0 °F 26.7 °F 21.9 °F 54% 30.01 in 10.0 mi WSW 19.6 mph 28.8 mph N/A   Mostly Cloudy
12:54 PM 37.0 °F 26.4 °F 19.9 °F 50% 30.05 in 10.0 mi WSW 20.7 mph 32.2 mph N/A   Mostly Cloudy
1:54 PM 36.0 °F 25.0 °F 21.0 °F 55% 30.10 in 10.0 mi West 20.7 mph 32.2 mph 0.00 in Snow Light Snow
2:54 PM 36.0 °F 25.3 °F 21.0 °F 55% 30.14 in 9.0 mi West 19.6 mph 31.1 mph 0.00 in Snow Light Snow
3:54 PM 36.0 °F 25.6 °F 19.9 °F 52% 30.17 in 9.0 mi West 18.4 mph 29.9 mph 0.00 in Snow Light Snow
4:54 PM 37.0 °F 27.0 °F 21.0 °F 52% 30.21 in 9.0 mi West 18.4 mph 26.5 mph 0.00 in Snow Light Snow
5:54 PM 36.0 °F 26.3 °F 19.0 °F 50% 30.25 in 9.0 mi West 16.1 mph 23.0 mph 0.00 in Snow Light Snow
6:52 PM 33.8 °F 25.3 °F 26.6 °F 75% 30.26 in 2.5 mi West 11.5 mph 20.7 mph 0.00 in Snow Light Snow
6:54 PM 33.1 °F 23.4 °F 26.1 °F 75% 30.29 in 2.5 mi West 13.8 mph 20.7 mph 0.00 in Snow Light Snow
7:04 PM 33.8 °F 24.8 °F 28.4 °F 81% 30.26 in 5.0 mi West 12.7 mph - 0.00 in Snow Light Snow
7:54 PM 34.0 °F 26.0 °F 24.1 °F 67% 30.31 in 10.0 mi West 10.4 mph - 0.00 in   Mostly Cloudy
8:54 PM 34.0 °F 26.0 °F 23.0 °F 64% 30.35 in 10.0 mi WNW 10.4 mph - N/A   Mostly Cloudy
9:54 PM 34.0 °F 26.0 °F 21.0 °F 59% 30.39 in 10.0 mi WNW 10.4 mph - 0.00 in   Scattered Clouds
10:54 PM 32.0 °F 24.8 °F 21.0 °F 64% 30.41 in 10.0 mi WNW 8.1 mph - N/A   Partly Cloudy
11:54 PM 32.0 °F 28.7 °F 24.1 °F 73% 30.44 in 10.0 mi North 3.5 mph - N/A   Scattered Clouds